Regional Weather Roundup
Issued by NWS Northern Indiana

Current Version | Previous Version | Text Only | Print | Product List | Glossary On
Versions: 1 2 3 4 5 6 7 8 9 10 11 12 13 14 15 16 17 18 19 20 21 22 23 24 25 26 27 28 29 30 31 32 33 34 35 36 37 38 39 40 41 42 43 44 45 46 47 48 49 50
000
ASUS43 KIWX 250010
RWRIWX

KIWX WEATHER ROUNDUP
NATIONAL WEATHER SERVICE NORTHERN INDIANA
700 PM EST FRI NOV 24 2017

NOTE: "FAIR" INDICATES FEW OR NO CLOUDS BELOW 12,000 FEET WITH NO
SIGNIFICANT WEATHER AND/OR OBSTRUCTIONS TO VISIBILITY.

* THESE STATIONS ARE NOT UNDER NWS QUALITY CONTROL. THEY ALSO MAY NOT
  REPORT WEATHER SUCH AS PRECIPITATION OR FOG.

INZ001>027-250100-
NORTHERN INDIANA

CITY           SKY/WX    TMP DP  RH WIND       PRES   REMARKS
GARY*          PTCLDY    55  36  47 S14G25    29.51S
VALPARAISO     CLEAR     54  37  52 MISG      29.54S
6HR MIN TEMP:  54; 6HR MAX TEMP:  61;

MICHIGAN CITY* CLEAR     52  34  50 S16G26    29.52S
LAPORTE*       CLEAR     51  36  55 S12G20    29.54S
6HR MIN TEMP:  51; 6HR MAX TEMP:  57;

KNOX*          CLEAR     52  36  54 S20G26    29.55S
SOUTH BEND     CLEAR     52  37  56 S17       29.54F
6HR MIN TEMP:  52; 6HR MAX TEMP:  57;

ELKHART*       CLEAR     52  36  54 S12       29.54F
GOSHEN         CLEAR     52  32  46 S20G29    29.56F
6HR MIN TEMP:  52; 6HR MAX TEMP:  56;

MONTICELLO*    CLEAR     53  33  46 S13G22    29.59S
6HR MIN TEMP:  53; 6HR MAX TEMP:  58;

LOGANSPORT*    CLEAR     50  34  53 S21G29    29.61F
ROCHESTER*     CLEAR     54  34  47 S16G25    29.59F
WARSAW*        CLEAR     50  34  53 S10G21    29.58F
AUBURN*        PTCLDY    52  32  46 S8G16     29.62F
FORT WAYNE     CLOUDY    51  34  52 S18       29.64F
6HR MIN TEMP:  50; 6HR MAX TEMP:  57;

HUNTINGTON*    PTCLDY    50  32  49 S15       29.63F
6HR MIN TEMP:  50; 6HR MAX TEMP:  55;

PERU/GRISSOM   CLEAR     52  34  51 S18G24    29.60F
6HR MIN TEMP:  51; 6HR MAX TEMP:  56;

MARION*        PTCLDY    49  33  56 S18       29.66F
6HR MIN TEMP:  23; 6HR MAX TEMP:  58;


$$
INZ028>050-250100-
CENTRAL INDIANA

CITY           SKY/WX    TMP DP  RH WIND       PRES   REMARKS
LAFAYETTE      CLEAR     52  35  52 SW10G21   29.62F
6HR MIN TEMP:  51; 6HR MAX TEMP:  58;

KOKOMO*        CLEAR     51  34  52 S16       29.64F
6HR MIN TEMP:  50; 6HR MAX TEMP:  57;

MUNCIE*        CLEAR     51  30  44 S16G25    29.68F
6HR MIN TEMP:  51; 6HR MAX TEMP:  58;

INDIANAPOLIS   PTCLDY    52  31  44 S15       29.70F
6HR MIN TEMP:  51; 6HR MAX TEMP:  59;


$$
MIZ043>046-050>051-056>058-064>065-071>073-077>080-250100-
SOUTHWEST LOWER MICHIGAN

CITY           SKY/WX    TMP DP  RH WIND       PRES   REMARKS
BATTLE CREEK   CLEAR     51  34  52 S22G32    29.52F
6HR MIN TEMP:  51; 6HR MAX TEMP:  55;

BENTON HARBOR  CLEAR     55  34  45 S16G28    29.49S
6HR MIN TEMP:  54; 6HR MAX TEMP:  59;

COLDWATER*     PTCLDY    51  31  46 S12G21    29.57F
6HR MIN TEMP:  51; 6HR MAX TEMP:  56;

HILLSDALE*     PTCLDY    50  32  50 S15G24    29.58F
HOLLAND        CLEAR     54  36  50 S18G26    29.47R
6HR MIN TEMP:  53; 6HR MAX TEMP:  60;

GRAND RAPIDS   PTCLDY    52  36  54 S18G28    29.45F
6HR MIN TEMP:  52; 6HR MAX TEMP:  58;

KALAMAZOO      CLEAR     51  33  50 S20       29.52F
6HR MIN TEMP:  50; 6HR MAX TEMP:  56;

STURGIS*       CLEAR     50  34  54 S16       29.55F
6HR MIN TEMP:  50; 6HR MAX TEMP:  54;

THREE RIVERS*  FAIR      51  35  54 S16G22    29.54F
6HR MIN TEMP:  51; 6HR MAX TEMP:  56;


$$
OHZ001>008-015>018-024>025-250100-
NORTHWEST OHIO

CITY           SKY/WX    TMP DP  RH WIND       PRES   REMARKS
WAUSEON*       FAIR      48  36  61 S15G22    29.63F
DEFIANCE       PTCLDY    50  32  50 S20G26    29.64F
6HR MIN TEMP:  50; 6HR MAX TEMP:  55;

FINDLAY        CLEAR     47  29  49 S16       29.69F
6HR MIN TEMP:  47; 6HR MAX TEMP:  55;

TOLEDO EXPRESS CLEAR     49  34  56 S12G22    29.64F
6HR MIN TEMP:  49; 6HR MAX TEMP:  55;

TOLEDO METCALF CLEAR     48  31  51 S18       29.67F
6HR MIN TEMP:  47; 6HR MAX TEMP:  55;

LIMA           CLEAR     47  30  51 S16       29.71F
6HR MIN TEMP:  47; 6HR MAX TEMP:  53;


$$
AND FOR LAKE MICHIGAN COASTAL AND OPEN LAKE BUOY OBSERVATIONS

STATION/POSITION TEMP    WIND        PRES    VSBY  WAVE
                 AIR SEA DIR/SP/G                  HT/PER
                 (F)     (DEG/KT/KT) (MB)    (MI)  (FT/S)
CALUMET HARBOR    55     190/ 15/ 21  998.4R
MICHIGAN CITY     54     170/ 21/ 28   N/A
BURNS HARBOR      54     190/ 23/ 25  999.7R
SAINT JOSEPH      56     190/ 11/ 21 1000.0
SOUTH LAKE BUOY   51 47  190/ 23/ 27  996.0          6/ 6

$$
&&




USA.gov is the U.S. government's official web portal to all federal, state and local government web resources and services.